Skip navigation

Daily Weather Reports

[Select Refresh to Update]


Yesterday's Data File


2/27/15
Time

Wind Dir
 

Wind Spd
mph

Wind Gust
mph

Hum In
%

Humidity
%

Temp In
 F

Temp
 F

Raw Barom
in

Tot Rain
in

DailyRain
in

HourRain
in

24HrRain
in

RainRate
in/hr
12:00am 350 0 4 35 80 72.1 50.5 29.88 9.37 0.00 0.00 0.00 0.000
12:01am 350 0 0 35 80 72.1 50.5 29.88 9.37 0.00 0.00 0.00 0.000
12:02am 350 0 0 35 80 72.1 50.4 29.88 9.37 0.00 0.00 0.00 0.000
12:03am 350 0 0 35 80 72.1 50.5 29.89 9.37 0.00 0.00 0.00 0.000
12:04am 350 2 2 35 80 72.1 50.4 29.88 9.37 0.00 0.00 0.00 0.000
12:05am 350 1 2 35 80 72.1 50.4 29.89 9.37 0.00 0.00 0.00 0.000
12:06am 350 0 2 35 80 72.1 50.4 29.88 9.37 0.00 0.00 0.00 0.000
12:07am 350 1 2 35 80 72.1 50.4 29.88 9.37 0.00 0.00 0.00 0.000
12:08am 350 2 2 35 80 72.0 50.4 29.88 9.37 0.00 0.00 0.00 0.000
12:09am 350 0 2 35 80 72.0 50.4 29.88 9.37 0.00 0.00 0.00 0.000
12:10am 350 0 2 35 80 72.0 50.4 29.88 9.37 0.00 0.00 0.00 0.000
12:11am 350 0 2 35 80 72.0 50.3 29.88 9.37 0.00 0.00 0.00 0.000
12:12am 350 1 2 35 80 72.0 50.3 29.88 9.37 0.00 0.00 0.00 0.000
12:13am 350 0 2 35 80 72.0 50.3 29.88 9.37 0.00 0.00 0.00 0.000
12:14am 350 0 2 35 80 71.8 50.3 29.88 9.37 0.00 0.00 0.00 0.000
12:15am 350 0 2 35 80 71.8 50.3 29.88 9.37 0.00 0.00 0.00 0.000
12:16am 350 0 1 35 80 71.8 50.3 29.88 9.37 0.00 0.00 0.00 0.000
12:17am 350 0 1 35 80 71.8 50.3 29.88 9.37 0.00 0.00 0.00 0.000
12:18am 350 0 2 35 80 71.8 50.3 29.88 9.37 0.00 0.00 0.00 0.000
12:19am 350 0 2 35 80 71.8 50.3 29.88 9.37 0.00 0.00 0.00 0.000
12:20am 350 0 2 35 80 71.8 50.3 29.88 9.37 0.00 0.00 0.00 0.000
12:21am 350 0 2 35 80 71.8 50.3 29.88 9.37 0.00 0.00 0.00 0.000
12:21am 350 2 2 35 80 71.6 50.3 29.88 9.37 0.00 0.00 0.00 0.000
12:23am 350 0 2 35 80 71.6 50.3 29.88 9.37 0.00 0.00 0.00 0.000
12:24am 350 0 2 35 81 71.6 50.3 29.88 9.37 0.00 0.00 0.00 0.000
12:25am 350 1 2 35 81 71.6 50.3 29.88 9.37 0.00 0.00 0.00 0.000
12:26am 350 0 2 35 81 71.6 50.3 29.88 9.37 0.00 0.00 0.00 0.000
12:27am 350 0 2 35 81 71.6 50.3 29.88 9.37 0.00 0.00 0.00 0.000
12:28am 350 0 2 35 81 71.6 50.3 29.88 9.37 0.00 0.00 0.00 0.000
12:29am 350 0 2 35 81 71.5 50.3 29.88 9.37 0.00 0.00 0.00 0.000
12:30am 350 0 2 35 81 71.5 50.3 29.88 9.37 0.00 0.00 0.00 0.000
12:31am 350 0 0 35 81 71.5 50.3 29.88 9.37 0.00 0.00 0.00 0.000
12:32am 350 0 0 35 81 71.5 50.3 29.88 9.37 0.00 0.00 0.00 0.000
12:33am 350 0 0 35 81 71.5 50.2 29.88 9.37 0.00 0.00 0.00 0.000
12:34am 350 0 0 35 81 71.3 50.2 29.88 9.37 0.00 0.00 0.00 0.000
12:35am 350 0 1 35 81 71.3 50.2 29.88 9.37 0.00 0.00 0.00 0.000
12:36am 350 0 1 35 81 71.3 50.2 29.88 9.37 0.00 0.00 0.00 0.000
12:37am 350 2 2 35 81 71.3 50.2 29.88 9.37 0.00 0.00 0.00 0.000
12:38am 350 1 3 35 81 71.3 50.1 29.88 9.37 0.00 0.00 0.00 0.000
12:39am 334 3 4 35 81 71.3 50.1 29.88 9.37 0.00 0.00 0.00 0.000
12:40am 333 3 4 35 81 71.3 50.0 29.88 9.37 0.00 0.00 0.00 0.000
12:41am 333 3 4 35 81 71.1 50.0 29.88 9.37 0.00 0.00 0.00 0.000
12:42am 333 4 4 35 81 71.1 50.0 29.88 9.37 0.00 0.00 0.00 0.000
12:43am 334 2 4 35 81 71.1 50.0 29.88 9.37 0.00 0.00 0.00 0.000
12:44am 334 2 4 35 81 71.1 49.9 29.88 9.37 0.00 0.00 0.00 0.000
12:44am 333 2 4 35 81 71.1 49.9 29.88 9.37 0.00 0.00 0.00 0.000
12:45am 334 3 3 35 81 71.1 49.9 29.88 9.37 0.00 0.00 0.00 0.000
12:47am 333 2 3 35 81 71.1 49.9 29.88 9.37 0.00 0.00 0.00 0.000
12:48am 333 3 3 35 81 71.0 49.9 29.88 9.37 0.00 0.00 0.00 0.000
12:49am 334 3 3 35 81 71.0 49.9 29.88 9.37 0.00 0.00 0.00 0.000
12:50am 334 2 4 35 81 71.0 49.9 29.88 9.37 0.00 0.00 0.00 0.000
12:50am 333 3 4 35 81 71.0 49.9 29.88 9.37 0.00 0.00 0.00 0.000
12:52am 334 0 4 35 81 71.0 49.9 29.88 9.37 0.00 0.00 0.00 0.000
12:52am 333 1 4 35 81 71.0 49.9 29.88 9.37 0.00 0.00 0.00 0.000
12:54am 333 3 4 35 81 70.8 49.9 29.88 9.37 0.00 0.00 0.00 0.000
12:55am 334 4 4 35 81 70.8 49.9 29.88 9.37 0.00 0.00 0.00 0.000
12:56am 334 3 4 35 81 70.8 49.9 29.88 9.37 0.00 0.00 0.00 0.000
12:57am 334 2 4 35 81 70.8 49.9 29.88 9.37 0.00 0.00 0.00 0.000
12:58am 334 3 4 35 81 70.8 49.9 29.88 9.37 0.00 0.00 0.00 0.000
12:59am 334 2 4 35 81 70.8 49.9 29.88 9.37 0.00 0.00 0.00 0.000
1:00am 334 0 4 35 81 70.8 49.8 29.88 9.37 0.00 0.00 0.00 0.000
1:01am 333 0 1 35 81 70.8 49.8 29.88 9.37 0.00 0.00 0.00 0.000
1:02am 334 0 1 35 81 70.6 49.8 29.88 9.37 0.00 0.00 0.00 0.000
1:03am 334 0 1 35 81 70.6 49.8 29.87 9.37 0.00 0.00 0.00 0.000
1:04am 334 0 1 35 81 70.6 49.8 29.87 9.37 0.00 0.00 0.00 0.000
1:05am 334 0 1 35 81 70.6 49.8 29.87 9.37 0.00 0.00 0.00 0.000
1:06am 334 0 1 35 81 70.6 49.8 29.87 9.37 0.00 0.00 0.00 0.000
1:07am 334 1 1 35 81 70.6 49.8 29.87 9.37 0.00 0.00 0.00 0.000
1:08am 334 0 2 35 81 70.6 49.7 29.86 9.37 0.00 0.00 0.00 0.000
1:09am 334 0 2 35 81 70.5 49.7 29.86 9.37 0.00 0.00 0.00 0.000
1:10am 333 0 2 35 81 70.5 49.7 29.86 9.37 0.00 0.00 0.00 0.000
1:11am 334 0 2 35 81 70.5 49.7 29.86 9.37 0.00 0.00 0.00 0.000
1:12am 334 0 2 35 81 70.5 49.7 29.86 9.37 0.00 0.00 0.00 0.000
1:13am 334 0 2 35 81 70.5 49.7 29.86 9.37 0.00 0.00 0.00 0.000
1:14am 333 0 2 35 81 70.5 49.7 29.86 9.37 0.00 0.00 0.00 0.000
1:15am 334 3 3 35 81 70.3 49.7 29.86 9.37 0.00 0.00 0.00 0.000
1:15am 349 4 4 35 81 70.3 49.6 29.86 9.37 0.00 0.00 0.00 0.000
1:17am 350 3 4 35 81 70.3 49.5 29.87 9.37 0.00 0.00 0.00 0.000
1:17am 350 2 4 35 81 70.3 49.5 29.87 9.37 0.00 0.00 0.00 0.000
1:19am 349 2 4 35 81 70.3 49.4 29.87 9.37 0.00 0.00 0.00 0.000
1:20am 350 1 4 35 81 70.3 49.3 29.87 9.37 0.00 0.00 0.00 0.000
1:21am 349 1 4 35 81 70.1 49.2 29.87 9.37 0.00 0.00 0.00 0.000
1:22am 349 0 4 35 81 70.1 49.1 29.87 9.37 0.00 0.00 0.00 0.000
1:23am 350 1 4 35 81 70.1 49.1 29.87 9.37 0.00 0.00 0.00 0.000
1:24am 350 0 4 35 81 70.1 49.0 29.87 9.37 0.00 0.00 0.00 0.000
1:25am 350 1 4 35 81 70.1 48.9 29.87 9.37 0.00 0.00 0.00 0.000
1:26am 350 0 4 35 81 70.1 48.9 29.87 9.37 0.00 0.00 0.00 0.000
1:27am 349 0 4 35 81 70.1 48.8 29.87 9.37 0.00 0.00 0.00 0.000
1:28am 349 0 4 35 81 69.9 48.8 29.87 9.37 0.00 0.00 0.00 0.000
1:29am 349 1 4 35 81 69.9 48.8 29.86 9.37 0.00 0.00 0.00 0.000
1:30am 350 0 4 35 81 69.9 48.8 29.86 9.37 0.00 0.00 0.00 0.000
1:31am 350 0 0 35 81 69.9 48.8 29.86 9.37 0.00 0.00 0.00 0.000
1:32am 350 0 0 35 81 69.9 48.7 29.86 9.37 0.00 0.00 0.00 0.000
1:33am 350 0 1 35 81 69.9 48.7 29.86 9.37 0.00 0.00 0.00 0.000
1:34am 350 0 1 35 81 69.8 48.7 29.86 9.37 0.00 0.00 0.00 0.000
1:35am 349 0 1 35 81 69.8 48.7 29.86 9.37 0.00 0.00 0.00 0.000
1:36am 349 0 1 35 81 69.8 48.7 29.86 9.37 0.00 0.00 0.00 0.000
1:36am 350 0 1 35 81 69.8 48.7 29.86 9.37 0.00 0.00 0.00 0.000
1:38am 350 1 2 35 81 69.8 48.7 29.86 9.37 0.00 0.00 0.00 0.000
1:39am 350 2 3 35 82 69.8 48.7 29.86 9.37 0.00 0.00 0.00 0.000
1:40am 350 1 3 35 81 69.8 48.8 29.87 9.37 0.00 0.00 0.00 0.000
1:41am 350 2 3 35 81 69.6 48.8 29.87 9.37 0.00 0.00 0.00 0.000
1:42am 349 2 3 35 81 69.6 48.8 29.87 9.37 0.00 0.00 0.00 0.000
1:43am 350 2 3 35 82 69.6 48.8 29.87 9.37 0.00 0.00 0.00 0.000
1:44am 349 4 4 35 82 69.6 48.8 29.86 9.37 0.00 0.00 0.00 0.000
1:45am 349 1 4 35 82 69.6 48.8 29.86 9.37 0.00 0.00 0.00 0.000
1:46am 349 0 3 35 82 69.6 48.8 29.87 9.37 0.00 0.00 0.00 0.000
1:47am 349 0 3 35 82 69.4 48.8 29.87 9.37 0.00 0.00 0.00 0.000
1:48am 349 2 3 35 82 69.4 48.8 29.87 9.37 0.00 0.00 0.00 0.000
1:49am 349 0 3 35 82 69.4 48.9 29.86 9.37 0.00 0.00 0.00 0.000
1:50am 349 0 3 35 82 69.4 48.9 29.86 9.37 0.00 0.00 0.00 0.000
1:50am 349 0 3 35 82 69.4 48.9 29.86 9.37 0.00 0.00 0.00 0.000
1:52am 349 0 3 35 82 69.4 48.9 29.86 9.37 0.00 0.00 0.00 0.000
1:53am 349 0 3 35 82 69.4 48.9 29.86 9.37 0.00 0.00 0.00 0.000
1:54am 349 3 3 35 82 69.4 49.0 29.87 9.37 0.00 0.00 0.00 0.000
1:55am 349 3 3 35 82 69.3 49.0 29.87 9.37 0.00 0.00 0.00 0.000
1:56am 349 0 3 35 82 69.3 49.0 29.87 9.37 0.00 0.00 0.00 0.000
1:57am 349 2 3 35 82 69.3 49.0 29.86 9.37 0.00 0.00 0.00 0.000
1:57am 349 2 3 35 82 69.3 49.0 29.86 9.37 0.00 0.00 0.00 0.000
1:59am 349 2 3 35 82 69.3 49.0 29.86 9.37 0.00 0.00 0.00 0.000
2:00am 349 2 4 35 82 69.3 49.0 29.86 9.37 0.00 0.00 0.00 0.000
2:01am 349 4 4 35 82 69.3 49.0 29.86 9.37 0.00 0.00 0.00 0.000
2:02am 349 2 4 35 82 69.3 49.0 29.86 9.37 0.00 0.00 0.00 0.000
2:03am 349 2 4 35 82 69.1 49.0 29.86 9.37 0.00 0.00 0.00 0.000
2:04am 336 3 4 35 82 69.1 48.9 29.86 9.37 0.00 0.00 0.00 0.000
2:05am 336 3 4 35 82 69.1 48.9 29.86 9.37 0.00 0.00 0.00 0.000
2:06am 336 3 4 35 82 69.1 48.9 29.86 9.37 0.00 0.00 0.00 0.000
2:07am 336 3 4 35 82 69.1 48.8 29.86 9.37 0.00 0.00 0.00 0.000
2:08am 336 1 4 35 82 69.1 48.8 29.86 9.37 0.00 0.00 0.00 0.000
2:09am 336 3 4 35 82 69.1 48.8 29.86 9.37 0.00 0.00 0.00 0.000
2:10am 319 2 4 35 82 68.9 48.8 29.86 9.37 0.00 0.00 0.00 0.000
2:11am 324 3 4 35 82 68.9 48.8 29.86 9.37 0.00 0.00 0.00 0.000
2:12am 324 3 4 35 82 68.9 48.8 29.86 9.37 0.00 0.00 0.00 0.000
2:13am 324 2 4 35 82 68.9 48.8 29.86 9.37 0.00 0.00 0.00 0.000
2:14am 324 3 4 35 82 68.9 48.8 29.86 9.37 0.00 0.00 0.00 0.000
2:14am 323 1 4 35 82 68.9 48.7 29.86 9.37 0.00 0.00 0.00 0.000
2:16am 323 0 2 35 82 68.8 48.7 29.86 9.37 0.00 0.00 0.00 0.000
2:17am 324 0 2 35 82 68.8 48.7 29.86 9.37 0.00 0.00 0.00 0.000
2:18am 324 0 2 35 82 68.8 48.7 29.86 9.37 0.00 0.00 0.00 0.000
2:19am 324 0 2 35 83 68.8 48.7 29.86 9.37 0.00 0.00 0.00 0.000
2:19am 323 0 2 35 83 68.8 48.7 29.86 9.37 0.00 0.00 0.00 0.000
2:21am 324 1 2 35 83 68.8 48.7 29.86 9.37 0.00 0.00 0.00 0.000
2:22am 324 0 2 35 83 68.8 48.7 29.86 9.37 0.00 0.00 0.00 0.000
2:23am 324 2 2 35 83 68.8 48.7 29.87 9.37 0.00 0.00 0.00 0.000
2:24am 324 2 2 35 83 68.8 48.7 29.87 9.37 0.00 0.00 0.00 0.000
2:25am 324 1 2 35 83 68.6 48.7 29.87 9.37 0.00 0.00 0.00 0.000
2:26am 324 0 2 35 83 68.6 48.6 29.87 9.37 0.00 0.00 0.00 0.000
2:27am 324 0 2 35 83 68.6 48.6 29.87 9.37 0.00 0.00 0.00 0.000
2:28am 323 0 2 35 83 68.6 48.6 29.87 9.37 0.00 0.00 0.00 0.000
2:29am 324 0 2 35 83 68.6 48.6 29.87 9.37 0.00 0.00 0.00 0.000
2:30am 323 0 2 35 83 68.6 48.6 29.87 9.37 0.00 0.00 0.00 0.000
2:31am 324 0 1 35 83 68.4 48.6 29.87 9.37 0.00 0.00 0.00 0.000
2:32am 323 0 2 35 83 68.4 48.5 29.87 9.37 0.00 0.00 0.00 0.000
2:33am 324 0 2 35 83 68.4 48.5 29.87 9.37 0.00 0.00 0.00 0.000
2:34am 324 0 2 35 83 68.4 48.5 29.87 9.37 0.00 0.00 0.00 0.000
2:35am 324 0 2 35 86 68.4 48.5 29.87 9.37 0.00 0.00 0.00 0.000
2:36am 324 0 2 35 86 68.4 48.5 29.87 9.37 0.00 0.00 0.00 0.000
2:37am 323 0 2 35 83 68.4 48.5 29.87 9.37 0.00 0.00 0.00 0.000
2:38am 324 0 2 35 83 68.4 48.5 29.87 9.37 0.00 0.00 0.00 0.000
2:39am 323 0 2 35 83 68.3 48.4 29.87 9.37 0.00 0.00 0.00 0.000
2:40am 324 0 2 35 83 68.3 48.4 29.87 9.37 0.00 0.00 0.00 0.000
2:41am 324 1 2 35 83 68.3 48.4 29.87 9.37 0.00 0.00 0.00 0.000
2:42am 324 2 2 35 83 68.3 48.4 29.87 9.37 0.00 0.00 0.00 0.000
2:43am 323 3 3 35 83 68.3 48.4 29.87 9.37 0.00 0.00 0.00 0.000
2:44am 323 2 3 35 83 68.3 48.4 29.87 9.37 0.00 0.00 0.00 0.000
2:45am 332 3 3 35 83 68.1 48.4 29.87 9.37 0.00 0.00 0.00 0.000
2:46am 332 2 3 35 83 68.1 48.4 29.87 9.37 0.00 0.00 0.00 0.000
2:47am 333 2 4 35 83 68.1 48.4 29.87 9.37 0.00 0.00 0.00 0.000
2:48am 333 2 4 35 83 68.1 48.3 29.87 9.37 0.00 0.00 0.00 0.000
2:49am 333 1 4 35 83 68.1 48.2 29.88 9.37 0.00 0.00 0.00 0.000
2:50am 333 1 4 35 82 68.1 48.2 29.88 9.37 0.00 0.00 0.00 0.000
2:51am 333 0 4 35 82 68.1 48.1 29.88 9.37 0.00 0.00 0.00 0.000
2:52am 333 0 4 35 82 67.9 48.1 29.88 9.37 0.00 0.00 0.00 0.000
2:52am 333 0 4 35 82 67.9 48.0 29.88 9.37 0.00 0.00 0.00 0.000
2:54am 333 0 4 35 82 67.9 48.0 29.87 9.37 0.00 0.00 0.00 0.000
2:55am 333 0 4 35 82 67.9 48.0 29.87 9.37 0.00 0.00 0.00 0.000
2:56am 333 1 4 35 82 67.9 48.0 29.88 9.37 0.00 0.00 0.00 0.000
2:57am 333 4 4 35 83 67.9 48.0 29.88 9.37 0.00 0.00 0.00 0.000
2:58am 340 2 4 35 83 67.9 47.9 29.88 9.37 0.00 0.00 0.00 0.000
2:59am 340 0 4 35 83 67.8 47.9 29.88 9.37 0.00 0.00 0.00 0.000
3:00am 340 0 4 35 83 67.8 47.9 29.88 9.37 0.00 0.00 0.00 0.000
3:00am 340 0 0 35 83 67.8 47.9 29.88 9.37 0.00 0.00 0.00 0.000
3:01am 340 2 3 35 83 67.8 47.8 29.88 9.37 0.00 0.00 0.00 0.000
3:03am 347 4 4 35 83 67.8 47.8 29.88 9.37 0.00 0.00 0.00 0.000
3:04am 346 4 4 35 83 67.8 47.8 29.88 9.37 0.00 0.00 0.00 0.000
3:05am 347 2 4 35 83 67.8 47.9 29.88 9.37 0.00 0.00 0.00 0.000
3:06am 347 2 4 35 83 67.8 47.9 29.88 9.37 0.00 0.00 0.00 0.000
3:07am 347 0 4 35 83 67.6 48.0 29.88 9.37 0.00 0.00 0.00 0.000
3:08am 347 2 4 35 83 67.6 48.0 29.88 9.37 0.00 0.00 0.00 0.000
3:09am 347 0 4 35 83 67.6 48.0 29.88 9.37 0.00 0.00 0.00 0.000
3:10am 346 0 4 35 83 67.6 48.0 29.88 9.37 0.00 0.00 0.00 0.000
3:11am 347 0 4 35 83 67.6 48.0 29.87 9.37 0.00 0.00 0.00 0.000
3:12am 347 0 4 35 83 67.6 48.0 29.87 9.37 0.00 0.00 0.00 0.000
3:13am 347 0 4 35 83 67.6 48.0 29.87 9.37 0.00 0.00 0.00 0.000
3:14am 347 0 4 35 83 67.6 48.0 29.87 9.37 0.00 0.00 0.00 0.000
3:15am 347 0 4 35 83 67.5 48.0 29.87 9.37 0.00 0.00 0.00 0.000
3:16am 347 0 1 35 83 67.5 48.0 29.87 9.37 0.00 0.00 0.00 0.000
3:17am 347 0 1 35 83 67.5 48.0 29.87 9.37 0.00 0.00 0.00 0.000
3:18am 346 0 1 35 83 67.5 48.0 29.87 9.37 0.00 0.00 0.00 0.000
3:19am 346 2 2 35 83 67.5 48.0 29.87 9.37 0.00 0.00 0.00 0.000
3:20am 346 1 2 35 83 67.5 48.0 29.87 9.37 0.00 0.00 0.00 0.000
3:21am 347 2 2 35 83 67.5 48.0 29.87 9.37 0.00 0.00 0.00 0.000
3:22am 347 0 3 35 83 67.5 48.0 29.87 9.37 0.00 0.00 0.00 0.000
3:22am 347 0 3 35 83 67.5 48.0 29.87 9.37 0.00 0.00 0.00 0.000
3:24am 346 0 3 35 83 67.3 48.0 29.87 9.37 0.00 0.00 0.00 0.000
3:25am 347 0 3 35 83 67.3 48.0 29.87 9.37 0.00 0.00 0.00 0.000
3:26am 346 0 3 35 83 67.3 47.9 29.87 9.37 0.00 0.00 0.00 0.000
3:27am 347 0 3 35 83 67.3 47.9 29.87 9.37 0.00 0.00 0.00 0.000
3:28am 347 0 3 35 83 67.3 47.9 29.87 9.37 0.00 0.00 0.00 0.000
3:29am 347 0 3 35 83 67.3 47.9 29.87 9.37 0.00 0.00 0.00 0.000
3:30am 347 0 3 35 83 67.3 47.9 29.87 9.37 0.00 0.00 0.00 0.000
3:31am 347 0 0 35 83 67.1 47.9 29.87 9.37 0.00 0.00 0.00 0.000
3:32am 346 0 0 35 83 67.1 47.9 29.87 9.37 0.00 0.00 0.00 0.000
3:33am 347 0 2 35 83 67.1 47.9 29.87 9.37 0.00 0.00 0.00 0.000
3:34am 347 0 2 35 83 67.1 48.0 29.87 9.37 0.00 0.00 0.00 0.000
3:35am 347 0 2 35 83 67.1 48.0 29.87 9.37 0.00 0.00 0.00 0.000
3:36am 347 0 2 35 83 67.1 48.0 29.87 9.37 0.00 0.00 0.00 0.000
3:37am 347 0 2 35 83 67.1 48.0 29.87 9.37 0.00 0.00 0.00 0.000
3:38am 346 0 2 35 83 67.1 48.1 29.87 9.37 0.00 0.00 0.00 0.000
3:39am 346 0 2 35 83 67.0 48.1 29.87 9.37 0.00 0.00 0.00 0.000
3:40am 346 0 2 35 83 67.0 48.1 29.87 9.37 0.00 0.00 0.00 0.000
3:41am 347 0 2 35 83 67.0 48.1 29.87 9.37 0.00 0.00 0.00 0.000
3:41am 347 0 2 35 83 67.0 48.1 29.87 9.37 0.00 0.00 0.00 0.000
3:43am 347 0 2 35 83 67.0 48.1 29.87 9.37 0.00 0.00 0.00 0.000
3:44am 346 1 2 35 83 67.0 48.1 29.87 9.37 0.00 0.00 0.00 0.000
3:45am 347 1 2 35 83 67.0 48.2 29.86 9.37 0.00 0.00 0.00 0.000
3:46am 346 0 2 35 83 67.0 48.2 29.87 9.37 0.00 0.00 0.00 0.000
3:47am 346 0 2 35 83 66.8 48.2 29.87 9.37 0.00 0.00 0.00 0.000
3:48am 346 0 2 35 83 66.8 48.2 29.87 9.37 0.00 0.00 0.00 0.000
3:49am 347 1 2 35 83 66.8 48.3 29.87 9.37 0.00 0.00 0.00 0.000
3:50am 347 0 2 35 83 66.8 48.3 29.87 9.37 0.00 0.00 0.00 0.000
3:51am 347 0 2 35 83 66.8 48.3 29.87 9.37 0.00 0.00 0.00 0.000
3:52am 347 0 2 35 84 66.8 48.3 29.87 9.37 0.00 0.00 0.00 0.000
3:53am 346 0 2 35 84 66.8 48.4 29.87 9.37 0.00 0.00 0.00 0.000
3:54am 346 0 2 35 84 66.8 48.4 29.87 9.37 0.00 0.00 0.00 0.000
3:55am 346 0 2 35 84 66.8 48.4 29.87 9.37 0.00 0.00 0.00 0.000
3:56am 347 0 2 35 84 66.7 48.4 29.87 9.37 0.00 0.00 0.00 0.000
3:57am 347 0 2 35 84 66.7 48.4 29.87 9.37 0.00 0.00 0.00 0.000
3:58am 346 0 2 35 83 66.7 48.4 29.87 9.37 0.00 0.00 0.00 0.000
3:59am 347 0 2 35 83 66.7 48.5 29.87 9.37 0.00 0.00 0.00 0.000
4:00am 346 0 2 35 83 66.7 48.5 29.87 9.37 0.00 0.00 0.00 0.000
4:01am 346 0 0 35 83 66.7 48.5 29.87 9.37 0.00 0.00 0.00 0.000
4:02am 347 0 0 35 83 66.7 48.5 29.87 9.37 0.00 0.00 0.00 0.000
4:03am 347 0 0 35 84 66.7 48.5 29.87 9.37 0.00 0.00 0.00 0.000
4:03am 346 0 0 35 84 66.7 48.6 29.87 9.37 0.00 0.00 0.00 0.000
4:05am 347 0 0 35 84 66.7 48.6 29.87 9.37 0.00 0.00 0.00 0.000
4:06am 346 0 0 35 84 66.5 48.6 29.87 9.37 0.00 0.00 0.00 0.000
4:07am 346 0 0 35 84 66.5 48.6 29.87 9.37 0.00 0.00 0.00 0.000
4:08am 347 0 0 35 84 66.5 48.7 29.87 9.37 0.00 0.00 0.00 0.000
4:09am 347 0 0 35 84 66.5 48.7 29.87 9.37 0.00 0.00 0.00 0.000
4:09am 346 0 0 35 84 66.5 48.7 29.87 9.37 0.00 0.00 0.00 0.000
4:11am 347 0 0 35 84 66.5 48.7 29.87 9.37 0.00 0.00 0.00 0.000
4:12am 346 0 0 35 84 66.5 48.7 29.87 9.37 0.00 0.00 0.00 0.000
4:13am 346 0 0 35 84 66.5 48.8 29.86 9.37 0.00 0.00 0.00 0.000
4:14am 347 0 0 35 84 66.5 48.8 29.86 9.37 0.00 0.00 0.00 0.000
4:15am 347 0 1 35 84 66.5 48.8 29.86 9.37 0.00 0.00 0.00 0.000
4:16am 347 0 1 35 84 66.5 48.8 29.86 9.37 0.00 0.00 0.00 0.000
4:17am 347 0 1 35 84 66.3 48.8 29.86 9.37 0.00 0.00 0.00 0.000
4:18am 347 0 1 35 84 66.3 48.9 29.86 9.37 0.00 0.00 0.00 0.000
4:19am 347 0 1 35 84 66.3 49.0 29.86 9.37 0.00 0.00 0.00 0.000
4:20am 346 0 1 35 84 66.3 49.0 29.87 9.37 0.00 0.00 0.00 0.000
4:21am 347 0 1 35 84 66.3 49.0 29.87 9.37 0.00 0.00 0.00 0.000
4:22am 346 0 1 35 84 66.3 49.1 29.87 9.37 0.00 0.00 0.00 0.000
4:23am 347 0 1 35 84 66.3 49.1 29.86 9.37 0.00 0.00 0.00 0.000
4:24am 347 0 1 35 84 66.3 49.2 29.86 9.37 0.00 0.00 0.00 0.000
4:25am 347 0 1 35 84 66.3 49.3 29.86 9.37 0.00 0.00 0.00 0.000
4:26am 347 0 1 35 84 66.3 49.3 29.86 9.37 0.00 0.00 0.00 0.000
4:27am 346 0 1 35 84 66.3 49.4 29.86 9.37 0.00 0.00 0.00 0.000
4:28am 346 0 1 35 84 66.3 49.4 29.86 9.37 0.00 0.00 0.00 0.000
4:29am 347 1 1 35 84 66.3 49.4 29.86 9.37 0.00 0.00 0.00 0.000
4:30am 347 0 1 35 84 66.3 49.5 29.86 9.37 0.00 0.00 0.00 0.000
4:31am 347 0 1 35 84 66.2 49.5 29.87 9.37 0.00 0.00 0.00 0.000
4:32am 347 0 1 35 84 66.2 49.5 29.87 9.37 0.00 0.00 0.00 0.000
4:33am 347 0 1 35 84 66.2 49.6 29.87 9.37 0.00 0.00 0.00 0.000
4:34am 346 0 1 35 84 66.2 49.6 29.87 9.37 0.00 0.00 0.00 0.000
4:35am 346 0 1 35 84 66.2 49.6 29.87 9.37 0.00 0.00 0.00 0.000
4:36am 346 0 1 35 84 66.2 49.6 29.87 9.37 0.00 0.00 0.00 0.000
4:37am 347 0 1 35 84 66.2 49.7 29.87 9.37 0.00 0.00 0.00 0.000
4:38am 347 0 1 35 84 66.2 49.7 29.87 9.37 0.00 0.00 0.00 0.000
4:39am 347 0 1 35 84 66.2 49.7 29.87 9.37 0.00 0.00 0.00 0.000
4:40am 347 0 1 35 84 66.2 49.7 29.87 9.37 0.00 0.00 0.00 0.000
4:41am 346 0 1 35 84 66.2 49.8 29.87 9.37 0.00 0.00 0.00 0.000
4:42am 346 0 1 35 84 66.2 49.8 29.87 9.37 0.00 0.00 0.00 0.000
4:43am 347 0 1 35 84 66.2 49.8 29.87 9.37 0.00 0.00 0.00 0.000
4:44am 347 0 1 35 84 66.2 49.8 29.87 9.37 0.00 0.00 0.00 0.000
4:45am 347 0 1 35 84 66.2 49.9 29.87 9.37 0.00 0.00 0.00 0.000
4:46am 346 0 0 35 84 66.2 49.8 29.87 9.37 0.00 0.00 0.00 0.000
4:47am 347 0 0 35 84 66.0 49.8 29.87 9.37 0.00 0.00 0.00 0.000
4:48am 346 0 0 35 84 66.0 49.9 29.87 9.37 0.00 0.00 0.00 0.000
4:49am 347 0 1 35 84 66.0 49.9 29.87 9.37 0.00 0.00 0.00 0.000
4:50am 347 0 1 35 84 66.0 49.9 29.87 9.37 0.00 0.00 0.00 0.000
4:51am 347 1 1 35 84 66.0 49.9 29.87 9.37 0.00 0.00 0.00 0.000
4:52am 347 0 1 35 84 66.0 49.9 29.87 9.37 0.00 0.00 0.00 0.000
4:53am 347 0 1 35 84 66.0 49.9 29.87 9.37 0.00 0.00 0.00 0.000
4:54am 346 0 1 35 84 66.0 49.9 29.87 9.37 0.00 0.00 0.00 0.000
4:55am 347 0 1 35 84 66.0 49.9 29.87 9.37 0.00 0.00 0.00 0.000
4:56am 347 0 1 35 84 66.0 49.9 29.87 9.37 0.00 0.00 0.00 0.000
4:57am 347 0 1 35 84 66.0 49.9 29.87 9.37 0.00 0.00 0.00 0.000
4:58am 347 0 1 35 84 66.0 49.9 29.88 9.37 0.00 0.00 0.00 0.000
4:59am 347 0 1 35 84 66.0 49.9 29.88 9.37 0.00 0.00 0.00 0.000
5:00am 346 0 1 35 84 66.0 49.9 29.87 9.37 0.00 0.00 0.00 0.000
5:01am 347 0 0 35 84 66.0 49.9 29.88 9.37 0.00 0.00 0.00 0.000
5:02am 346 0 1 35 84 66.0 49.9 29.88 9.37 0.00 0.00 0.00 0.000
5:03am 347 0 1 35 84 65.8 49.9 29.88 9.37 0.00 0.00 0.00 0.000
5:04am 346 0 1 35 84 65.8 50.0 29.88 9.37 0.00 0.00 0.00 0.000
5:05am 347 0 1 35 84 65.8 49.9 29.88 9.37 0.00 0.00 0.00 0.000
5:06am 347 0 1 35 84 65.8 50.0 29.88 9.37 0.00 0.00 0.00 0.000
5:06am 347 0 1 35 84 65.8 50.0 29.88 9.37 0.00 0.00 0.00 0.000
5:08am 346 0 1 35 84 65.8 50.0 29.88 9.37 0.00 0.00 0.00 0.000
5:09am 346 0 1 35 84 65.8 50.0 29.88 9.37 0.00 0.00 0.00 0.000
5:10am 347 0 1 35 84 65.8 50.0 29.88 9.37 0.00 0.00 0.00 0.000
5:11am 346 0 1 35 84 65.8 50.0 29.88 9.37 0.00 0.00 0.00 0.000
5:12am 347 0 1 35 84 65.8 50.0 29.88 9.37 0.00 0.00 0.00 0.000
5:13am 347 0 1 35 84 65.8 50.0 29.88 9.37 0.00 0.00 0.00 0.000
5:14am 347 0 1 35 84 65.8 50.1 29.88 9.37 0.00 0.00 0.00 0.000
5:15am 346 0 1 35 84 65.8 50.1 29.88 9.37 0.00 0.00 0.00 0.000
5:16am 346 0 0 35 84 65.8 50.1 29.88 9.37 0.00 0.00 0.00 0.000
5:17am 347 0 0 35 84 65.8 50.1 29.88 9.37 0.00 0.00 0.00 0.000
5:18am 347 0 0 36 84 65.8 50.1 29.88 9.37 0.00 0.00 0.00 0.000
5:19am 347 0 0 36 84 65.8 50.2 29.88 9.37 0.00 0.00 0.00 0.000
5:20am 346 0 0 36 84 65.8 50.2 29.88 9.37 0.00 0.00 0.00 0.000
5:21am 347 0 0 36 84 65.7 50.2 29.88 9.37 0.00 0.00 0.00 0.000
5:22am 346 0 0 36 84 65.7 50.2 29.88 9.37 0.00 0.00 0.00 0.000
5:23am 346 0 0 36 84 65.7 50.2 29.88 9.37 0.00 0.00 0.00 0.000
5:24am 347 0 0 36 84 65.7 50.2 29.88 9.37 0.00 0.00 0.00 0.000
5:25am 347 0 0 36 84 65.7 50.3 29.88 9.37 0.00 0.00 0.00 0.000
5:26am 347 0 0 36 87 65.7 50.3 29.88 9.37 0.00 0.00 0.00 0.000
5:27am 347 0 0 36 84 65.7 50.3 29.88 9.37 0.00 0.00 0.00 0.000
5:28am 346 0 0 36 84 65.7 50.3 29.88 9.37 0.00 0.00 0.00 0.000
5:29am 346 0 0 36 84 65.7 50.4 29.89 9.37 0.00 0.00 0.00 0.000
5:30am 347 0 0 36 84 65.7 50.4 29.89 9.37 0.00 0.00 0.00 0.000
5:31am 347 0 0 36 84 65.7 50.4 29.89 9.37 0.00 0.00 0.00 0.000
5:32am 347 0 0 35 84 65.7 50.4 29.89 9.37 0.00 0.00 0.00 0.000
5:33am 347 0 1 35 84 65.7 50.5 29.89 9.37 0.00 0.00 0.00 0.000
5:34am 347 0 1 35 84 65.7 50.4 29.89 9.37 0.00 0.00 0.00 0.000
5:35am 346 0 1 35 84 65.7 50.4 29.89 9.37 0.00 0.00 0.00 0.000
5:36am 346 0 1 35 84 65.7 50.4 29.89 9.37 0.00 0.00 0.00 0.000
5:37am 347 0 1 35 84 65.7 50.5 29.89 9.37 0.00 0.00 0.00 0.000
5:38am 347 0 1 35 84 65.7 50.5 29.89 9.37 0.00 0.00 0.00 0.000
5:39am 347 0 1 35 84 65.7 50.5 29.89 9.37 0.00 0.00 0.00 0.000
5:40am 346 0 1 35 84 65.5 50.5 29.89 9.37 0.00 0.00 0.00 0.000
5:41am 346 0 1 35 84 65.5 50.5 29.89 9.37 0.00 0.00 0.00 0.000
5:42am 346 0 1 35 84 65.5 50.5 29.89 9.37 0.00 0.00 0.00 0.000
5:43am 346 0 1 35 84 65.5 50.5 29.89 9.37 0.00 0.00 0.00 0.000
5:44am 347 0 1 35 84 65.5 50.6 29.89 9.37 0.00 0.00 0.00 0.000
5:45am 346 0 1 35 84 65.5 50.6 29.89 9.37 0.00 0.00 0.00 0.000
5:46am 346 0 0 35 84 65.5 50.6 29.89 9.37 0.00 0.00 0.00 0.000
5:47am 347 0 0 35 84 65.5 50.6 29.89 9.37 0.00 0.00 0.00 0.000
5:48am 346 0 0 35 84 65.5 50.6 29.89 9.37 0.00 0.00 0.00 0.000
5:49am 346 0 0 35 84 65.5 50.6 29.89 9.37 0.00 0.00 0.00 0.000
5:50am 347 0 0 35 84 65.5 50.6 29.89 9.37 0.00 0.00 0.00 0.000
5:51am 347 0 0 35 84 65.5 50.6 29.89 9.37 0.00 0.00 0.00 0.000
5:52am 346 0 0 35 84 65.5 50.6 29.89 9.37 0.00 0.00 0.00 0.000
5:53am 347 0 0 35 84 65.5 50.6 29.89 9.37 0.00 0.00 0.00 0.000
5:54am 347 0 0 35 84 65.5 50.6 29.89 9.37 0.00 0.00 0.00 0.000
5:55am 347 0 0 35 84 65.5 50.6 29.90 9.37 0.00 0.00 0.00 0.000
5:56am 346 0 0 35 84 65.5 50.6 29.90 9.37 0.00 0.00 0.00 0.000
5:57am 346 0 0 35 83 65.5 50.7 29.89 9.37 0.00 0.00 0.00 0.000
5:58am 346 0 0 35 83 65.5 50.7 29.90 9.37 0.00 0.00 0.00 0.000
5:59am 347 0 0 35 83 65.5 50.7 29.89 9.37 0.00 0.00 0.00 0.000
6:00am 347 0 0 35 83 65.5 50.7 29.89 9.37 0.00 0.00 0.00 0.000
6:01am 347 0 1 35 83 65.5 50.7 29.91 9.37 0.00 0.00 0.00 0.000
6:01am 347 1 1 35 83 65.5 50.7 29.91 9.37 0.00 0.00 0.00 0.000
6:03am 346 2 2 35 83 65.5 50.7 29.91 9.37 0.00 0.00 0.00 0.000
6:04am 346 0 2 34 83 65.5 50.7 29.91 9.37 0.00 0.00 0.00 0.000
6:05am 347 0 2 34 83 65.5 50.7 29.91 9.37 0.00 0.00 0.00 0.000
6:06am 347 0 2 34 83 65.5 50.7 29.91 9.37 0.00 0.00 0.00 0.000
6:07am 347 0 2 34 83 65.5 50.7 29.91 9.37 0.00 0.00 0.00 0.000
6:08am 347 0 2 34 83 65.5 50.7 29.91 9.37 0.00 0.00 0.00 0.000
6:09am 346 0 2 34 83 65.5 50.7 29.91 9.37 0.00 0.00 0.00 0.000
6:10am 346 0 2 34 83 65.5 50.7 29.91 9.37 0.00 0.00 0.00 0.000
6:11am 347 0 2 34 83 65.5 50.7 29.91 9.37 0.00 0.00 0.00 0.000
6:12am 347 0 2 34 83 65.5 50.7 29.91 9.37 0.00 0.00 0.00 0.000
6:13am 347 0 2 34 83 65.5 50.7 29.91 9.37 0.00 0.00 0.00 0.000
6:14am 347 0 2 34 83 65.5 50.7 29.91 9.37 0.00 0.00 0.00 0.000
6:15am 347 0 2 34 83 65.5 50.7 29.91 9.37 0.00 0.00 0.00 0.000
6:16am 346 0 0 34 83 65.5 50.7 29.91 9.37 0.00 0.00 0.00 0.000
6:17am 347 0 0 34 83 65.5 50.7 29.91 9.37 0.00 0.00 0.00 0.000
6:18am 347 2 2 34 83 65.5 50.7 29.91 9.37 0.00 0.00 0.00 0.000
6:19am 347 0 2 34 83 65.5 50.7 29.91 9.37 0.00 0.00 0.00 0.000
6:20am 347 0 2 34 83 65.5 50.7 29.91 9.37 0.00 0.00 0.00 0.000
6:21am 347 0 2 34 83 65.5 50.7 29.91 9.37 0.00 0.00 0.00 0.000
6:22am 347 0 2 34 83 65.4 50.7 29.91 9.37 0.00 0.00 0.00 0.000
6:23am 347 0 2 34 83 65.4 50.7 29.91 9.37 0.00 0.00 0.00 0.000
6:24am 347 0 2 34 83 65.4 50.7 29.91 9.37 0.00 0.00 0.00 0.000
6:25am 347 0 2 34 83 65.4 50.7 29.91 9.37 0.00 0.00 0.00 0.000
6:26am 346 0 2 34 83 65.4 50.7 29.91 9.37 0.00 0.00 0.00 0.000
6:27am 347 0 2 34 83 65.4 50.7 29.90 9.37 0.00 0.00 0.00 0.000
6:28am 347 1 2 34 83 65.4 50.7 29.91 9.37 0.00 0.00 0.00 0.000
6:29am 346 0 2 34 83 65.4 50.7 29.90 9.37 0.00 0.00 0.00 0.000
6:30am 357 0 2 34 83 65.4 50.7 29.90 9.37 0.00 0.00 0.00 0.000
6:31am 356 0 0 34 83 65.4 50.7 29.91 9.37 0.00 0.00 0.00 0.000
6:32am 356 0 0 34 83 65.4 50.7 29.91 9.37 0.00 0.00 0.00 0.000
6:33am 356 0 0 34 83 65.4 50.7 29.91 9.37 0.00 0.00 0.00 0.000
6:34am 357 0 0 34 83 65.4 50.7 29.91 9.37 0.00 0.00 0.00 0.000
6:35am 357 0 0 34 83 65.4 50.7 29.91 9.37 0.00 0.00 0.00 0.000
6:36am 357 0 0 34 83 65.4 50.7 29.91 9.37 0.00 0.00 0.00 0.000
6:37am 357 0 0 34 83 65.4 50.7 29.91 9.37 0.00 0.00 0.00 0.000
6:38am 356 0 0 34 83 65.4 50.7 29.91 9.37 0.00 0.00 0.00 0.000
6:39am 357 0 1 34 83 65.4 50.7 29.91 9.37 0.00 0.00 0.00 0.000
6:40am 357 2 2 34 83 65.4 50.7 29.91 9.37 0.00 0.00 0.00 0.000
6:41am 357 0 2 34 83 65.4 50.7 29.91 9.37 0.00 0.00 0.00 0.000
6:42am 357 0 2 34 83 65.4 50.7 29.91 9.37 0.00 0.00 0.00 0.000
6:43am 357 0 2 34 83 65.4 50.7 29.91 9.37 0.00 0.00 0.00 0.000
6:44am 356 0 2 34 83 65.4 50.7 29.91 9.37 0.00 0.00 0.00 0.000
6:45am 356 1 2 34 83 65.4 50.7 29.91 9.37 0.00 0.00 0.00 0.000
6:46am 357 0 1 34 83 65.4 50.7 29.91 9.37 0.00 0.00 0.00 0.000
6:47am 357 0 2 34 83 65.4 50.7 29.91 9.37 0.00 0.00 0.00 0.000
6:48am 357 0 2 34 83 65.4 50.7 29.91 9.37 0.00 0.00 0.00 0.000
6:49am 357 0 2 34 83 65.4 50.7 29.91 9.37 0.00 0.00 0.00 0.000
6:50am 357 0 2 34 83 65.4 50.7 29.91 9.37 0.00 0.00 0.00 0.000
6:51am 356 0 2 34 83 65.4 50.7 29.90 9.37 0.00 0.00 0.00 0.000
6:52am 357 0 2 34 83 65.4 50.7 29.90 9.37 0.00 0.00 0.00 0.000
6:52am 357 0 2 34 83 65.4 50.7 29.90 9.37 0.00 0.00 0.00 0.000
6:54am 357 0 2 34 83 65.4 50.7 29.90 9.37 0.00 0.00 0.00 0.000
6:55am 357 0 2 34 83 65.4 50.7 29.90 9.37 0.00 0.00 0.00 0.000
6:56am 357 0 2 34 83 65.4 50.7 29.90 9.37 0.00 0.00 0.00 0.000
6:57am 356 0 2 34 83 65.4 50.7 29.90 9.37 0.00 0.00 0.00 0.000
6:58am 356 0 2 34 83 65.4 50.7 29.90 9.37 0.00 0.00 0.00 0.000
6:59am 357 0 2 34 83 65.4 50.7 29.90 9.37 0.00 0.00 0.00 0.000
7:00am 357 0 2 34 83 65.4 50.7 29.90 9.37 0.00 0.00 0.00 0.000
7:01am 357 0 0 34 83 65.4 50.7 29.91 9.37 0.00 0.00 0.00 0.000
7:02am 357 0 0 34 83 65.4 50.7 29.91 9.37 0.00 0.00 0.00 0.000
7:03am 357 0 0 34 83 65.4 50.7 29.91 9.37 0.00 0.00 0.00 0.000
7:04am 356 0 0 34 83 65.4 50.7 29.91 9.37 0.00 0.00 0.00 0.000
7:05am 357 0 0 34 83 65.4 50.7 29.91 9.37 0.00 0.00 0.00 0.000
7:06am 357 0 0 34 83 65.4 50.7 29.91 9.37 0.00 0.00 0.00 0.000
7:07am 356 0 0 34 83 65.4 50.7 29.91 9.37 0.00 0.00 0.00 0.000
7:08am 357 0 0 34 83 65.4 50.8 29.91 9.37 0.00 0.00 0.00 0.000
7:09am 357 0 0 34 83 65.4 50.8 29.91 9.37 0.00 0.00 0.00 0.000
7:10am 356 0 0 34 83 65.4 50.7 29.91 9.37 0.00 0.00 0.00 0.000
7:11am 356 0 0 34 83 65.4 50.8 29.91 9.37 0.00 0.00 0.00 0.000
7:12am 357 0 0 34 83 65.4 50.8 29.91 9.37 0.00 0.00 0.00 0.000
7:13am 356 0 0 34 83 65.4 50.8 29.91 9.37 0.00 0.00 0.00 0.000
7:14am 357 0 1 34 83 65.4 50.8 29.91 9.37 0.00 0.00 0.00 0.000
7:15am 23 1 2 34 83 65.4 50.8 29.91 9.37 0.00 0.00 0.00 0.000
7:16am 47 0 2 34 83 65.4 50.8 29.91 9.37 0.00 0.00 0.00 0.000
7:17am 228 0 2 34 83 65.4 50.8 29.91 9.37 0.00 0.00 0.00 0.000
7:18am 89 1 2 34 83 65.4 50.9 29.91 9.37 0.00 0.00 0.00 0.000
7:19am 89 0 2 34 83 65.4 50.9 29.91 9.37 0.00 0.00 0.00 0.000
7:20am 89 0 2 34 83 65.4 50.9 29.91 9.37 0.00 0.00 0.00 0.000
7:21am 90 1 2 34 83 65.4 50.9 29.91 9.37 0.00 0.00 0.00 0.000
7:22am 90 0 2 34 83 65.4 50.9 29.91 9.37 0.00 0.00 0.00 0.000
7:23am 90 0 2 34 83 65.4 50.9 29.91 9.37 0.00 0.00 0.00 0.000
7:24am 90 0 2 34 83 65.4 50.9 29.91 9.37 0.00 0.00 0.00 0.000
7:25am 89 0 2 34 83 65.4 50.9 29.91 9.37 0.00 0.00 0.00 0.000
7:26am 90 0 2 34 83 65.4 50.9 29.92 9.37 0.00 0.00 0.00 0.000
7:27am 90 0 2 34 83 65.4 50.9 29.92 9.37 0.00 0.00 0.00 0.000
7:28am 90 0 2 34 83 65.4 50.9 29.92 9.37 0.00 0.00 0.00 0.000
7:29am 90 0 2 34 83 65.4 50.9 29.92 9.37 0.00 0.00 0.00 0.000
7:30am 90 0 2 34 83 65.4 50.9 29.92 9.37 0.00 0.00 0.00 0.000
7:31am 90 0 0 34 83 65.4 50.9 29.92 9.37 0.00 0.00 0.00 0.000
7:32am 89 0 0 34 83 65.4 50.9 29.92 9.37 0.00 0.00 0.00 0.000
7:33am 90 0 0 35 83 65.4 50.9 29.92 9.37 0.00 0.00 0.00 0.000
7:34am 90 0 0 35 83 65.4 51.0 29.92 9.37 0.00 0.00 0.00 0.000
7:35am 90 0 0 35 83 65.4 51.0 29.92 9.37 0.00 0.00 0.00 0.000
7:36am 90 0 0 35 83 65.4 51.0 29.92 9.37 0.00 0.00 0.00 0.000
7:37am 90 0 0 35 84 65.4 51.0 29.92 9.37 0.00 0.00 0.00 0.000
7:38am 90 0 0 35 84 65.4 51.0 29.92 9.37 0.00 0.00 0.00 0.000
7:39am 89 0 0 35 84 65.4 51.1 29.92 9.37 0.00 0.00 0.00 0.000
7:40am 90 0 0 35 84 65.4 51.1 29.92 9.37 0.00 0.00 0.00 0.000
7:41am 90 0 0 35 84 65.4 51.1 29.92 9.37 0.00 0.00 0.00 0.000
7:42am 90 0 0 36 84 65.4 51.1 29.92 9.37 0.00 0.00 0.00 0.000
7:43am 90 0 0 36 84 65.4 51.1 29.92 9.37 0.00 0.00 0.00 0.000
7:44am 90 0 0 36 84 65.5 51.1 29.92 9.37 0.00 0.00 0.00 0.000
7:45am 89 0 0 36 84 65.5 51.1 29.92 9.37 0.00 0.00 0.00 0.000
7:46am 89 0 0 36 84 65.5 51.1 29.92 9.37 0.00 0.00 0.00 0.000
7:47am 90 0 0 36 84 65.5 51.1 29.92 9.37 0.00 0.00 0.00 0.000
7:48am 90 0 0 36 84 65.5 51.1 29.92 9.37 0.00 0.00 0.00 0.000
7:49am 90 0 0 36 84 65.5 51.1 29.92 9.37 0.00 0.00 0.00 0.000
7:50am 90 0 0 36 84 65.5 51.2 29.92 9.37 0.00 0.00 0.00 0.000
7:51am 90 0 0 38 84 65.5 51.2 29.92 9.37 0.00 0.00 0.00 0.000
7:52am 89 0 0 37 84 65.5 51.2 29.93 9.37 0.00 0.00 0.00 0.000
7:53am 89 0 0 37 84 65.5 51.2 29.93 9.37 0.00 0.00 0.00 0.000
7:54am 89 0 1 37 84 65.7 51.2 29.93 9.37 0.00 0.00 0.00 0.000
7:55am 90 0 1 38 84 65.7 51.2 29.93 9.37 0.00 0.00 0.00 0.000
7:56am 90 0 1 38 84 65.7 51.2 29.93 9.37 0.00 0.00 0.00 0.000
7:57am 90 0 1 38 84 65.7 51.3 29.93 9.37 0.00 0.00 0.00 0.000
7:58am 90 0 1 38 84 65.7 51.3 29.93 9.37 0.00 0.00 0.00 0.000
7:59am 89 0 1 38 84 65.7 51.3 29.93 9.37 0.00 0.00 0.00 0.000
8:00am 89 0 1 38 84 65.7 51.3 29.93 9.37 0.00 0.00 0.00 0.000
8:01am 90 0 0 38 84 65.7 51.3 29.93 9.37 0.00 0.00 0.00 0.000
8:02am 90 0 0 38 84 65.7 51.3 29.93 9.37 0.00 0.00 0.00 0.000
8:03am 90 0 0 38 84 65.7 51.3 29.93 9.37 0.00 0.00 0.00 0.000
8:04am 90 0 0 38 84 65.8 51.3 29.93 9.37 0.00 0.00 0.00 0.000
8:05am 90 0 0 38 84 65.8 51.4 29.93 9.37 0.00 0.00 0.00 0.000
8:06am 89 0 0 38 84 65.8 51.4 29.93 9.37 0.00 0.00 0.00 0.000
8:07am 89 0 0 38 84 65.8 51.4 29.93 9.37 0.00 0.00 0.00 0.000
8:08am 90 0 1 38 84 65.8 51.4 29.93 9.37 0.00 0.00 0.00 0.000
8:09am 90 0 1 38 84 65.8 51.5 29.93 9.37 0.00 0.00 0.00 0.000
8:10am 90 0 1 38 84 65.8 51.5 29.92 9.37 0.00 0.00 0.00 0.000
8:11am 90 0 1 38 84 65.8 51.5 29.92 9.37 0.00 0.00 0.00 0.000
8:12am 89 0 1 38 84 65.8 51.5 29.92 9.37 0.00 0.00 0.00 0.000
8:13am 89 0 1 39 84 65.8 51.5 29.92 9.37 0.00 0.00 0.00 0.000
8:14am 90 1 2 39 84 65.8 51.5 29.92 9.37 0.00 0.00 0.00 0.000
8:15am 90 0 2 39 84 66.0 51.6 29.92 9.37 0.00 0.00 0.00 0.000
8:16am 90 0 1 39 84 66.0 51.6 29.92 9.37 0.00 0.00 0.00 0.000
8:17am 90 0 1 39 84 66.0 51.6 29.92 9.37 0.00 0.00 0.00 0.000
8:18am 90 0 1 39 84 66.0 51.6 29.92 9.37 0.00 0.00 0.00 0.000
8:19am 90 0 1 39 84 66.0 51.6 29.92 9.37 0.00 0.00 0.00 0.000
8:20am 89 1 1 39 84 66.0 51.6 29.92 9.37 0.00 0.00 0.00 0.000
8:21am 90 0 1 39 83 66.0 51.6 29.92 9.37 0.00 0.00 0.00 0.000
8:22am 90 1 1 39 83 66.0 51.6 29.92 9.37 0.00 0.00 0.00 0.000
8:23am 90 0 1 39 83 66.2 51.7 29.92 9.37 0.00 0.00 0.00 0.000
8:24am 90 1 2 39 83 66.2 51.7 29.92 9.37 0.00 0.00 0.00 0.000
8:25am 90 0 2 39 83 66.2 51.7 29.92 9.37 0.00 0.00 0.00 0.000
8:26am 89 0 2 39 83 66.2 51.7 29.92 9.37 0.00 0.00 0.00 0.000
8:27am 89 0 2 39 84 66.2 51.7 29.92 9.37 0.00 0.00 0.00 0.000
8:28am 90 0 2 39 84 66.2 51.7 29.92 9.37 0.00 0.00 0.00 0.000
8:29am 89 0 2 39 84 66.2 51.7 29.92 9.37 0.00 0.00 0.00 0.000
8:30am 90 1 2 39 84 66.2 51.7 29.92 9.37 0.00 0.00 0.00 0.000
8:31am 90 0 1 39 84 66.3 51.7 29.92 9.37 0.00 0.00 0.00 0.000
8:32am 90 0 1 39 83 66.3 51.7 29.92 9.37 0.00 0.00 0.00 0.000
8:33am 90 0 1 39 83 66.3 51.8 29.92 9.37 0.00 0.00 0.00 0.000
8:34am 90 1 1 39 84 66.3 51.8 29.92 9.37 0.00 0.00 0.00 0.000
8:35am 99 0 1 39 84 66.3 51.9 29.92 9.37 0.00 0.00 0.00 0.000
8:36am 151 2 2 39 84 66.3 51.9 29.92 9.37 0.00 0.00 0.00 0.000
8:37am 151 0 3 39 83 66.3 52.0 29.92 9.37 0.00 0.00 0.00 0.000
8:38am 151 1 3 39 83 66.5 52.0 29.92 9.37 0.00 0.00 0.00 0.000
8:39am 153 3 3 39 83 66.5 52.1 29.92 9.37 0.00 0.00 0.00 0.000
8:40am 153 2 3 39 83 66.5 52.1 29.92 9.37 0.00 0.00 0.00 0.000
8:41am 153 2 3 39 83 66.5 52.1 29.92 9.37 0.00 0.00 0.00 0.000
8:42am 163 2 4 39 83 66.5 52.2 29.92 9.37 0.00 0.00 0.00 0.000
8:43am 163 0 4 39 83 66.5 52.2 29.92 9.37 0.00 0.00 0.00 0.000
8:44am 163 0 4 40 83 66.5 52.2 29.92 9.37 0.00 0.00 0.00 0.000
8:45am 163 0 4 40 83 66.5 52.2 29.92 9.37 0.00 0.00 0.00 0.000
8:46am 153 0 3 40 83 66.7 52.2 29.93 9.37 0.00 0.00 0.00 0.000
8:47am 152 0 3 40 83 66.7 52.3 29.93 9.37 0.00 0.00 0.00 0.000
8:48am 152 0 3 40 83 66.7 52.3 29.93 9.37 0.00 0.00 0.00 0.000
8:49am 153 0 3 40 83 66.7 52.3 29.93 9.37 0.00 0.00 0.00 0.000
8:50am 153 0 3 40 83 66.7 52.3 29.93 9.37 0.00 0.00 0.00 0.000
8:51am 153 0 3 40 83 66.7 52.3 29.92 9.37 0.00 0.00 0.00 0.000
8:52am 153 0 3 40 83 66.7 52.3 29.93 9.37 0.00 0.00 0.00 0.000
8:53am 153 0 3 40 83 66.7 52.3 29.93 9.37 0.00 0.00 0.00 0.000
8:54am 152 0 3 40 83 66.7 52.3 29.93 9.37 0.00 0.00 0.00 0.000
8:55am 152 0 3 40 83 66.8 52.3 29.93 9.37 0.00 0.00 0.00 0.000
8:56am 153 0 3 40 83 66.8 52.4 29.93 9.37 0.00 0.00 0.00 0.000
8:57am 153 0 3 40 83 66.8 52.4 29.93 9.37 0.00 0.00 0.00 0.000
8:58am 153 0 3 40 83 66.8 52.4 29.93 9.37 0.00 0.00 0.00 0.000
8:59am 153 0 3 40 83 66.8 52.4 29.92 9.37 0.00 0.00 0.00 0.000
9:00am 152 0 3 40 83 66.8 52.4 29.92 9.37 0.00 0.00 0.00 0.000
9:01am 152 0 2 40 83 67.0 52.4 29.93 9.37 0.00 0.00 0.00 0.000
9:02am 153 0 2 40 83 67.0 52.4 29.93 9.37 0.00 0.00 0.00 0.000
9:03am 153 1 2 40 83 67.0 52.5 29.92 9.37 0.00 0.00 0.00 0.000
9:04am 150 0 2 40 83 67.0 52.6 29.92 9.37 0.00 0.00 0.00 0.000
9:05am 150 2 3 40 83 67.0 52.7 29.92 9.37 0.00 0.00 0.00 0.000
9:06am 150 0 3 40 83 67.0 52.7 29.92 9.37 0.00 0.00 0.00 0.000
9:07am 151 0 3 40 83 67.0 52.7 29.92 9.37 0.00 0.00 0.00 0.000
9:08am 151 0 3 40 83 67.1 52.8 29.92 9.37 0.00 0.00 0.00 0.000
9:09am 151 0 3 40 82 67.1 52.8 29.92 9.37 0.00 0.00 0.00 0.000
9:10am 151 3 3 40 82 67.1 52.8 29.92 9.37 0.00 0.00 0.00 0.000
9:11am 151 0 3 40 83 67.1 52.8 29.92 9.37 0.00 0.00 0.00 0.000
9:12am 151 0 3 40 82 67.1 52.9 29.93 9.37 0.00 0.00 0.00 0.000
9:13am 151 0 3 41 82 67.1 52.9 29.93 9.37 0.00 0.00 0.00 0.000
9:14am 151 0 3 40 82 67.3 52.9 29.92 9.37 0.00 0.00 0.00 0.000
9:15am 151 0 3 40 82 67.3 53.0 29.93 9.37 0.00 0.00 0.00 0.000
9:16am 151 0 0 41 82 67.3 53.1 29.92 9.37 0.00 0.00 0.00 0.000
9:17am 151 0 1 41 82 67.3 53.1 29.92 9.37 0.00 0.00 0.00 0.000
9:18am 156 2 3 41 82 67.3 53.2 29.93 9.37 0.00 0.00 0.00 0.000
9:19am 171 4 4 41 82 67.3 53.3 29.92 9.37 0.00 0.00 0.00 0.000
9:20am 171 3 4 41 82 67.5 53.4 29.93 9.37 0.00 0.00 0.00 0.000
9:21am 171 1 4 41 82 67.5 53.4 29.93 9.37 0.00 0.00 0.00 0.000
9:22am 171 0 4 41 82 67.5 53.5 29.93 9.37 0.00 0.00 0.00 0.000
9:23am 171 0 4 41 82 67.5 53.5 29.93 9.37 0.00 0.00 0.00 0.000
9:24am 171 2 4 41 82 67.5 53.6 29.93 9.37 0.00 0.00 0.00 0.000
9:25am 111 2 4 41 82 67.6 53.7 29.93 9.37 0.00 0.00 0.00 0.000
9:26am 84 0 4 42 82 67.6 53.8 29.93 9.37 0.00 0.00 0.00 0.000
9:27am 84 0 4 42 82 67.6 53.8 29.93 9.37 0.00 0.00 0.00 0.000
9:28am 84 0 4 42 82 67.6 53.9 29.93 9.37 0.00 0.00 0.00 0.000
9:29am 84 1 4 42 82 67.6 54.0 29.93 9.37 0.00 0.00 0.00 0.000
9:30am 136 1 4 42 82 67.6 54.2 29.93 9.37 0.00 0.00 0.00 0.000
9:31am 137 0 2 42 82 67.8 54.3 29.93 9.37 0.00 0.00 0.00 0.000
9:32am 137 0 2 42 82 67.8 54.4 29.93 9.37 0.00 0.00 0.00 0.000
9:33am 179 2 2 42 82 67.8 54.6 29.93 9.37 0.00 0.00 0.00 0.000
9:34am 179 1 2 42 81 67.8 54.7 29.92 9.37 0.00 0.00 0.00 0.000
9:35am 179 0 2 43 82 67.8 54.9 29.92 9.37 0.00 0.00 0.00 0.000
9:36am 180 3 4 43 81 67.9 55.0 29.92 9.37 0.00 0.00 0.00 0.000
9:37am 118 2 4 43 81 67.9 55.0 29.92 9.37 0.00 0.00 0.00 0.000
9:38am 128 1 5 43 81 67.9 55.1 29.93 9.37 0.00 0.00 0.00 0.000
9:39am 128 2 5 43 80 67.9 55.1 29.92 9.37 0.00 0.00 0.00 0.000
9:40am 147 3 5 43 80 67.9 55.1 29.93 9.37 0.00 0.00 0.00 0.000
9:40am 178 4 5 43 80 67.9 55.1 29.92 9.37 0.00 0.00 0.00 0.000
9:42am 190 2 5 43 79 68.1 55.1 29.92 9.37 0.00 0.00 0.00 0.000
9:43am 178 0 5 43 79 68.1 55.0 29.92 9.37 0.00 0.00 0.00 0.000
9:44am 180 2 5 43 79 68.1 55.0 29.92 9.37 0.00 0.00 0.00 0.000
9:45am 181 2 5 43 79 68.1 55.0 29.92 9.37 0.00 0.00 0.00 0.000
9:46am 185 2 3 43 78 68.3 55.0 29.92 9.37 0.00 0.00 0.00 0.000
9:47am 185 3 3 43 78 68.3 54.9 29.92 9.37 0.00 0.00 0.00 0.000
9:48am 185 0 3 44 78 68.3 54.9 29.92 9.37 0.00 0.00 0.00 0.000
9:49am 23 0 3 44 78 68.4 55.0 29.92 9.37 0.00 0.00 0.00 0.000
9:50am 209 1 3 44 78 68.4 55.0 29.92 9.37 0.00 0.00 0.00 0.000
9:50am 209 0 3 44 78 68.4 55.0 29.93 9.37 0.00 0.00 0.00 0.000
9:52am 209 2 4 44 78 68.4 55.0 29.92 9.37 0.00 0.00 0.00 0.000
9:53am 209 0 4 44 77 68.4 55.0 29.92 9.37 0.00 0.00 0.00 0.000
9:54am 209 0 4 44 77 68.6 55.0 29.92 9.37 0.00 0.00 0.00 0.000
9:55am 209 0 4 44 77 68.6 55.0 29.92 9.37 0.00 0.00 0.00 0.000
9:56am 209 0 4 44 77 68.6 55.0 29.92 9.37 0.00 0.00 0.00 0.000
9:57am 209 1 4 44 77 68.6 55.0 29.92 9.37 0.00 0.00 0.00 0.000
9:58am 209 0 4 44 77 68.8 55.0 29.92 9.37 0.00 0.00 0.00 0.000
9:59am 209 2 4 44 77 68.8 55.0 29.93 9.37 0.00 0.00 0.00 0.000
10:00am 217 0 4 44 77 68.8 54.9 29.93 9.37 0.00 0.00 0.00 0.000
10:01am 217 1 1 44 77 68.9 54.9 29.93 9.37 0.00 0.00 0.00 0.000
10:02am 217 0 1 45 76 68.9 54.9 29.93 9.37 0.00 0.00 0.00 0.000
10:03am 199 2 3 45 76 68.9 54.9 29.93 9.37 0.00 0.00 0.00 0.000
10:04am 199 0 3 45 76 69.1 54.9 29.93 9.37 0.00 0.00 0.00 0.000
10:05am 194 3 3 45 76 69.1 54.9 29.93 9.37 0.00 0.00 0.00 0.000
10:06am 194 2 3 45 76 69.1 54.9 29.93 9.37 0.00 0.00 0.00 0.000
10:07am 197 3 4 45 76 69.1 54.9 29.93 9.37 0.00 0.00 0.00 0.000
10:08am 188 3 5 45 76 69.3 54.9 29.93 9.37 0.00 0.00 0.00 0.000
10:09am 188 0 5 45 75 69.3 54.9 29.93 9.37 0.00 0.00 0.00 0.000
10:10am 188 2 5 45 75 69.3 54.9 29.93 9.37 0.00 0.00 0.00 0.000
10:11am 189 1 5 45 75 69.3 54.9 29.93 9.37 0.00 0.00 0.00 0.000
10:12am 189 0 5 45 75 69.4 54.9 29.93 9.37 0.00 0.00 0.00 0.000
10:13am 189 0 5 45 75 69.4 54.9 29.93 9.37 0.00 0.00 0.00 0.000
10:14am 189 0 5 45 75 69.4 54.9 29.93 9.37 0.00 0.00 0.00 0.000
10:15am 188 0 5 45 75 69.4 54.9 29.93 9.37 0.00 0.00 0.00 0.000
10:16am 188 0 0 45 75 69.6 55.0 29.93 9.37 0.00 0.00 0.00 0.000
10:17am 188 0 0 45 75 69.6 55.0 29.93 9.37 0.00 0.00 0.00 0.000
10:18am 189 0 0 45 75 69.6 55.0 29.93 9.37 0.00 0.00 0.00 0.000
10:19am 189 0 0 45 75 69.8 55.0 29.93 9.37 0.00 0.00 0.00 0.000
10:20am 186 2 3 45 75 69.8 55.0 29.93 9.37 0.00 0.00 0.00 0.000
10:21am 186 2 3 45 75 69.8 55.1 29.93 9.37 0.00 0.00 0.00 0.000
10:22am 154 3 4 45 75 69.8 55.1 29.92 9.37 0.00 0.00 0.00 0.000
10:23am 159 1 4 45 75 69.9 55.1 29.93 9.37 0.00 0.00 0.00 0.000
10:24am 174 0 4 45 75 69.9 55.1 29.93 9.37 0.00 0.00 0.00 0.000
10:25am 174 1 4 45 74 69.9 55.2 29.93 9.37 0.00 0.00 0.00 0.000
10:26am 174 2 4 45 74 69.9 55.4 29.93 9.37 0.00 0.00 0.00 0.000
10:27am 174 0 4 45 74 70.1 55.5 29.93 9.37 0.00 0.00 0.00 0.000
10:28am 174 0 4 45 74 70.1 55.6 29.92 9.37 0.00 0.00 0.00 0.000
10:29am 174 0 4 45 74 70.1 55.6 29.92 9.37 0.00 0.00 0.00 0.000
10:30am 174 1 4 45 74 70.1 55.7 29.92 9.37 0.00 0.00 0.00 0.000
10:31am 132 2 3 45 75 70.3 55.9 29.92 9.37 0.00 0.00 0.00 0.000
10:32am 152 2 3 45 74 70.3 56.0 29.93 9.37 0.00 0.00 0.00 0.000
10:33am 139 1 3 45 74 70.3 56.2 29.93 9.37 0.00 0.00 0.00 0.000
10:34am 139 0 3 45 74 70.3 56.3 29.93 9.37 0.00 0.00 0.00 0.000
10:35am 138 0 3 45 73 70.3 56.5 29.92 9.37 0.00 0.00 0.00 0.000
10:36am 30 2 3 45 73 70.5 56.6 29.93 9.37 0.00 0.00 0.00 0.000
10:37am 74 5 5 45 73 70.5 56.7 29.92 9.37 0.00 0.00 0.00 0.000
10:38am 108 0 5 45 72 70.5 56.7 29.92 9.37 0.00 0.00 0.00 0.000
10:39am 109 2 5 45 72 70.6 56.8 29.92 9.37 0.00 0.00 0.00 0.000
10:40am 118 0 5 45 71 70.6 56.9 29.92 9.37 0.00 0.00 0.00 0.000
10:41am 203 0 5 45 71 70.6 56.9 29.92 9.37 0.00 0.00 0.00 0.000
10:42am 202 0 5 45 71 70.6 56.9 29.92 9.37 0.00 0.00 0.00 0.000
10:43am 202 0 5 45 70 70.6 57.0 29.92 9.37 0.00 0.00 0.00 0.000
10:44am 202 0 5 45 70 70.6 57.1 29.92 9.37 0.00 0.00 0.00 0.000
10:45am 202 0 5 45 70 70.8 57.1 29.92 9.37 0.00 0.00 0.00 0.000
10:46am 203 0 0 45 70 70.8 57.2 29.92 9.37 0.00 0.00 0.00 0.000
10:47am 203 0 1 44 70 70.8 57.3 29.92 9.37 0.00 0.00 0.00 0.000
10:48am 103 2 3 44 70 70.8 57.4 29.92 9.37 0.00 0.00 0.00 0.000
10:49am 103 2 3 44 70 71.0 57.4 29.92 9.37 0.00 0.00 0.00 0.000
10:50am 108 0 3 44 69 71.0 57.4 29.92 9.37 0.00 0.00 0.00 0.000
10:51am 108 0 3 44 69 71.0 57.4 29.92 9.37 0.00 0.00 0.00 0.000
10:52am 196 5 5 44 69 71.1 57.4 29.92 9.37 0.00 0.00 0.00 0.000
10:53am 196 3 6 44 69 71.1 57.5 29.92 9.37 0.00 0.00 0.00 0.000
10:54am 199 4 6 44 69 71.1 57.5 29.91 9.37 0.00 0.00 0.00 0.000
10:55am 209 4 6 44 68 71.1 57.5 29.91 9.37 0.00 0.00 0.00 0.000
10:56am 223 2 6 44 68 71.3 57.5 29.91 9.37 0.00 0.00 0.00 0.000
10:57am 190 3 6 44 68 71.3 57.6 29.91 9.37 0.00 0.00 0.00 0.000
10:58am 186 3 6 44 67 71.3 57.7 29.91 9.37 0.00 0.00 0.00 0.000
10:59am 186 2 6 44 67 71.3 57.7 29.91 9.37 0.00 0.00 0.00 0.000
11:00am 184 0 6 44 67 71.3 57.7 29.91 9.37 0.00 0.00 0.00 0.000
11:01am 184 0 2 44 66 71.5 57.8 29.91 9.37 0.00 0.00 0.00 0.000
11:02am 184 0 2 44 66 71.5 57.8 29.91 9.37 0.00 0.00 0.00 0.000
11:03am 228 2 2 43 66 71.5 57.9 29.92 9.37 0.00 0.00 0.00 0.000
11:04am 190 5 9 43 66 71.5 58.0 29.91 9.37 0.00 0.00 0.00 0.000
11:05am 211 6 9 43 66 71.5 58.1 29.91 9.37 0.00 0.00 0.00 0.000
11:06am 221 4 9 43 66 71.6 58.1 29.91 9.37 0.00 0.00 0.00 0.000
11:07am 207 5 9 43 65 71.6 58.1 29.91 9.37 0.00 0.00 0.00 0.000
11:08am 209 3 9 43 65 71.6 58.1 29.91 9.37 0.00 0.00 0.00 0.000
11:09am 203 5 9 43 64 71.8 58.1 29.91 9.37 0.00 0.00 0.00 0.000
11:10am 176 6 9 43 64 71.8 58.2 29.91 9.37 0.00 0.00 0.00 0.000
11:11am 194 3 9 43 64 71.8 58.2 29.91 9.37 0.00 0.00 0.00 0.000
11:12am 220 5 9 43 64 71.8 58.3 29.91 9.37 0.00 0.00 0.00 0.000
11:13am 222 4 9 43 64 72.0 58.3 29.91 9.37 0.00 0.00 0.00 0.000
11:14am 157 3 9 43 64 72.0 58.5 29.91 9.37 0.00 0.00 0.00 0.000
11:15am 190 5 9 43 64 72.0 58.5 29.91 9.37 0.00 0.00 0.00 0.000
11:16am 181 5 6 43 63 72.0 58.6 29.90 9.37 0.00 0.00 0.00 0.000
11:17am 148 4 6 43 63 72.1 58.7 29.91 9.37 0.00 0.00 0.00 0.000
11:18am 234 5 6 43 63 72.1 58.7 29.90 9.37 0.00 0.00 0.00 0.000
11:19am 209 10 10 42 63 72.1 58.7 29.90 9.37 0.00 0.00 0.00 0.000
11:20am 201 6 10 42 63 72.1 58.8 29.90 9.37 0.00 0.00 0.00 0.000
11:21am 205 7 10 42 64 72.3 58.9 29.90 9.37 0.00 0.00 0.00 0.000
11:22am 191 5 10 42 64 72.3 59.0 29.91 9.37 0.00 0.00 0.00 0.000
11:23am 197 4 10 42 64 72.3 59.3 29.91 9.37 0.00 0.00 0.00 0.000
11:24am 164 4 10 42 63 72.3 59.3 29.90 9.37 0.00 0.00 0.00 0.000
11:25am 164 3 10 42 63 72.3 59.3 29.90 9.37 0.00 0.00 0.00 0.000
11:26am 188 4 10 42 62 72.5 59.3 29.90 9.37 0.00 0.00 0.00 0.000
11:27am 220 1 10 42 62 72.5 59.3 29.90 9.37 0.00 0.00 0.00 0.000
11:28am 199 5 10 42 62 72.5 59.3 29.90 9.37 0.00 0.00 0.00 0.000
11:29am 187 3 10 42 61 72.5 59.2 29.90 9.37 0.00 0.00 0.00 0.000
11:30am 187 0 10 42 61 72.5 59.3 29.90 9.37 0.00 0.00 0.00 0.000
11:31am 187 0 0 42 61 72.7 59.3 29.90 9.37 0.00 0.00 0.00 0.000
11:32am 187 0 0 42 61 72.7 59.3 29.90 9.37 0.00 0.00 0.00 0.000
11:33am 187 0 1 42 61 72.7 59.3 29.90 9.37 0.00 0.00 0.00 0.000
11:34am 187 1 3 42 60 72.7 59.3 29.90 9.37 0.00 0.00 0.00 0.000
11:35am 179 3 5 42 60 72.8 59.3 29.89 9.37 0.00 0.00 0.00 0.000
11:36am 180 0 5 41 60 72.8 59.3 29.90 9.37 0.00 0.00 0.00 0.000
11:37am 180 1 5 41 59 72.8 59.3 29.89 9.37 0.00 0.00 0.00 0.000
11:38am 179 3 5 41 60 72.8 59.3 29.89 9.37 0.00 0.00 0.00 0.000
11:39am 186 3 5 41 59 73.0 59.3 29.89 9.37 0.00 0.00 0.00 0.000
11:40am 211 4 5 41 59 73.0 59.3 29.89 9.37 0.00 0.00 0.00 0.000
11:41am 192 3 5 41 59 73.0 59.3 29.89 9.37 0.00 0.00 0.00 0.000
11:42am 211 3 5 41 59 73.0 59.3 29.89 9.37 0.00 0.00 0.00 0.000
11:43am 211 0 5 41 59 73.2 59.3 29.89 9.37 0.00 0.00 0.00 0.000
11:44am 207 5 5 41 59 73.2 59.3 29.89 9.37 0.00 0.00 0.00 0.000
11:45am 232 1 6 41 59 73.2 59.3 29.89 9.37 0.00 0.00 0.00 0.000
11:46am 232 1 2 41 59 73.2 59.3 29.89 9.37 0.00 0.00 0.00 0.000
11:47am 251 4 4 41 59 73.2 59.3 29.89 9.37 0.00 0.00 0.00 0.000
11:48am 257 3 5 41 59 73.3 59.3 29.89 9.37 0.00 0.00 0.00 0.000
11:49am 250 2 5 41 59 73.3 59.3 29.89 9.37 0.00 0.00 0.00 0.000
11:50am 250 0 5 41 59 73.3 59.3 29.89 9.37 0.00 0.00 0.00 0.000
11:51am 251 0 5 41 59 73.5 59.2 29.89 9.37 0.00 0.00 0.00 0.000
11:52am 194 6 6 41 59 73.5 59.2 29.89 9.37 0.00 0.00 0.00 0.000
11:53am 194 3 7 40 59 73.5 59.2 29.89 9.37 0.00 0.00 0.00 0.000
11:54am 195 1 7 40 59 73.5 59.1 29.89 9.37 0.00 0.00 0.00 0.000
11:55am 195 2 7 40 59 73.5 59.1 29.89 9.37 0.00 0.00 0.00 0.000
11:56am 199 3 7 40 59 73.5 59.1 29.89 9.37 0.00 0.00 0.00 0.000
11:57am 190 1 7 40 59 73.7 59.0 29.89 9.37 0.00 0.00 0.00 0.000
11:58am 197 2 7 40 59 73.7 59.0 29.89 9.37 0.00 0.00 0.00 0.000
11:59am 217 3 7 40 59 73.7 58.9 29.89 9.37 0.00 0.00 0.00 0.000
12:00pm 194 3 7 40 59 73.9 58.9 29.89 9.37 0.00 0.00 0.00 0.000
12:01pm 217 1 5 40 59 73.9 58.9 29.89 9.37 0.00 0.00 0.00 0.000
12:02pm 251 2 5 40 60 73.9 58.9 29.89 9.37 0.00 0.00 0.00 0.000
12:03pm 195 4 5 40 60 73.9 58.9 29.89 9.37 0.00 0.00 0.00 0.000
12:04pm 190 4 6 40 60 73.9 58.8 29.88 9.37 0.00 0.00 0.00 0.000
12:05pm 230 4 7 40 60 74.0 58.8 29.89 9.37 0.00 0.00 0.00 0.000
12:06pm 190 5 7 40 60 74.0 58.7 29.88 9.37 0.00 0.00 0.00 0.000
12:07pm 188 0 7 40 60 74.0 58.7 29.89 9.37 0.00 0.00 0.00 0.000
12:08pm 188 4 7 40 60 74.0 58.6 29.88 9.37 0.00 0.00 0.00 0.000
12:09pm 180 2 7 40 60 74.0 58.6 29.88 9.37 0.00 0.00 0.00 0.000
12:10pm 180 3 7 40 60 74.2 58.6 29.88 9.37 0.00 0.00 0.00 0.000
12:11pm 180 1 7 39 60 74.2 58.5 29.88 9.37 0.00 0.00 0.00 0.000
12:12pm 203 2 7 39 60 74.2 58.6 29.88 9.37 0.00 0.00 0.00 0.000
12:13pm 204 1 7 39 60 74.2 58.5 29.88 9.37 0.00 0.00 0.00 0.000
12:14pm 204 1 7 39 60 74.2 58.6 29.88 9.37 0.00 0.00 0.00 0.000
12:15pm 204 0 7 39 60 74.4 58.5 29.88 9.37 0.00 0.00 0.00 0.000
12:16pm 179 3 4 39 60 74.4 58.6 29.88 9.37 0.00 0.00 0.00 0.000
12:17pm 196 4 5 39 60 74.4 58.6 29.88 9.37 0.00 0.00 0.00 0.000
12:18pm 197 1 5 39 60 74.4 58.5 29.87 9.37 0.00 0.00 0.00 0.000
12:19pm 201 5 6 39 60 74.4 58.5 29.88 9.37 0.00 0.00 0.00 0.000
12:20pm 197 5 6 39 60 74.5 58.5 29.87 9.37 0.00 0.00 0.00 0.000
12:21pm 182 2 6 39 60 74.5 58.5 29.87 9.37 0.00 0.00 0.00 0.000
12:22pm 165 2 6 39 60 74.5 58.5 29.87 9.37 0.00 0.00 0.00 0.000
12:23pm 164 2 6 39 60 74.5 58.4 29.87 9.37 0.00 0.00 0.00 0.000
12:24pm 156 1 6 39 60 74.5 58.4 29.87 9.37 0.00 0.00 0.00 0.000
12:25pm 156 0 6 39 60 74.7 58.4 29.87 9.37 0.00 0.00 0.00 0.000
12:26pm 198 2 6 38 60 74.7 58.3 29.87 9.37 0.00 0.00 0.00 0.000
12:27pm 199 0 6 38 60 74.7 58.3 29.87 9.37 0.00 0.00 0.00 0.000
12:28pm 282 2 6 38 60 74.7 58.3 29.87 9.37 0.00 0.00 0.00 0.000
12:29pm 215 3 6 38 60 74.7 58.3 29.87 9.37 0.00 0.00 0.00 0.000
12:30pm 211 2 6 38 60 74.9 58.3 29.87 9.37 0.00 0.00 0.00 0.000
12:31pm 211 1 3 38 60 74.9 58.2 29.87 9.37 0.00 0.00 0.00 0.000
12:32pm 211 1 3 38 60 74.9 58.2 29.87 9.37 0.00 0.00 0.00 0.000
12:33pm 205 3 4 38 60 74.9 58.2 29.87 9.37 0.00 0.00 0.00 0.000
12:34pm 205 0 4 38 60 74.9 58.1 29.87 9.37 0.00 0.00 0.00 0.000
12:35pm 205 1 4 38 60 74.9 58.1 29.87 9.37 0.00 0.00 0.00 0.000
12:36pm 205 1 4 38 60 75.1 58.1 29.87 9.37 0.00 0.00 0.00 0.000
12:37pm 204 2 4 38 60 75.1 58.1 29.87 9.37 0.00 0.00 0.00 0.000
12:38pm 204 0 4 38 61 75.1 58.1 29.87 9.37 0.00 0.00 0.00 0.000
12:39pm 134 0 4 38 61 75.1 58.1 29.86 9.37 0.00 0.00 0.00 0.000
12:40pm 110 2 4 38 61 75.1 58.1 29.86 9.37 0.00 0.00 0.00 0.000
12:41pm 77 3 4 38 61 75.1 58.1 29.87 9.37 0.00 0.00 0.00 0.000
12:42pm 92 2 5 38 60 75.2 58.1 29.86 9.37 0.00 0.00 0.00 0.000
12:43pm 128 1 5 38 60 75.2 58.0 29.86 9.37 0.00 0.00 0.00 0.000
12:44pm 133 0 5 37 60 75.2 58.0 29.86 9.37 0.00 0.00 0.00 0.000
12:45pm 132 0 5 37 60 75.2 58.0 29.86 9.37 0.00 0.00 0.00 0.000
12:46pm 132 0 0 37 60 75.2 58.0 29.86 9.37 0.00 0.00 0.00 0.000
12:47pm 132 0 0 37 61 75.2 58.0 29.86 9.37 0.00 0.00 0.00 0.000
12:48pm 82 4 5 37 61 75.2 58.1 29.86 9.37 0.00 0.00 0.00 0.000
12:49pm 88 1 5 37 60 75.4 58.0 29.86 9.37 0.00 0.00 0.00 0.000
12:50pm 90 0 5 37 60 75.4 58.0 29.86 9.37 0.00 0.00 0.00 0.000
12:51pm 90 5 5 37 60 75.4 58.0 29.86 9.37 0.00 0.00 0.00 0.000
12:52pm 80 2 5 37 60 75.4 58.0 29.86 9.37 0.00 0.00 0.00 0.000
12:53pm 76 2 5 37 60 75.4 57.9 29.86 9.37 0.00 0.00 0.00 0.000
12:54pm 74 3 5 37 60 75.4 57.9 29.86 9.37 0.00 0.00 0.00 0.000
12:55pm 75 1 5 37 60 75.4 57.9 29.86 9.37 0.00 0.00 0.00 0.000
12:56pm 75 2 5 37 60 75.6 57.8 29.86 9.37 0.00 0.00 0.00 0.000
12:57pm 76 3 5 37 60 75.6 57.8 29.86 9.37 0.00 0.00 0.00 0.000
12:58pm 76 3 5 37 60 75.6 57.8 29.86 9.37 0.00 0.00 0.00 0.000
12:59pm 76 1 5 37 60 75.6 57.7 29.86 9.37 0.00 0.00 0.00 0.000
1:00pm 76 0 5 36 60 75.6 57.7 29.86 9.37 0.00 0.00 0.00 0.000
1:01pm 76 2 2 36 60 75.6 57.6 29.86 9.37 0.00 0.00 0.00 0.000
1:02pm 67 3 4 36 60 75.6 57.7 29.86 9.37 0.00 0.00 0.00 0.000
1:03pm 80 3 6 36 61 75.6 57.6 29.86 9.37 0.00 0.00 0.00 0.000
1:04pm 80 3 6 36 61 75.6 57.6 29.86 9.37 0.00 0.00 0.00 0.000
1:05pm 80 2 6 36 60 75.8 57.6 29.86 9.37 0.00 0.00 0.00 0.000
1:06pm 52 3 6 36 60 75.8 57.6 29.86 9.37 0.00 0.00 0.00 0.000
1:07pm 53 2 6 36 60 75.8 57.5 29.86 9.37 0.00 0.00 0.00 0.000
1:08pm 53 0 6 36 60 75.8 57.5 29.86 9.37 0.00 0.00 0.00 0.000
1:09pm 53 1 6 36 60 75.8 57.5 29.86 9.37 0.00 0.00 0.00 0.000
1:10pm 53 1 6 36 60 75.8 57.5 29.86 9.37 0.00 0.00 0.00 0.000
1:11pm 53 0 6 36 61 75.8 57.5 29.86 9.37 0.00 0.00 0.00 0.000
1:12pm 53 1 6 36 61 75.8 57.5 29.85 9.37 0.00 0.00 0.00 0.000
1:13pm 53 0 6 36 61 75.8 57.5 29.86 9.37 0.00 0.00 0.00 0.000
1:14pm 53 0 6 36 61 75.8 57.5 29.85 9.37 0.00 0.00 0.00 0.000
1:15pm 53 0 6 36 61 75.8 57.5 29.85 9.37 0.00 0.00 0.00 0.000
1:16pm 53 0 0 36 61 75.8 57.5 29.85 9.37 0.00 0.00 0.00 0.000
1:17pm 53 0 1 36 61 75.8 57.6 29.85 9.37 0.00 0.00 0.00 0.000
1:18pm 53 0 1 36 61 75.8 57.6 29.85 9.37 0.00 0.00 0.00 0.000
1:19pm 53 0 1 36 61 75.8 57.6 29.85 9.37 0.00 0.00 0.00 0.000
1:20pm 53 0 1 36 61 75.8 57.7 29.85 9.37 0.00 0.00 0.00 0.000
1:21pm 53 0 1 36 61 75.8 57.7 29.85 9.37 0.00 0.00 0.00 0.000
1:22pm 144 2 2 36 61 75.8 57.7 29.85 9.37 0.00 0.00 0.00 0.000
1:23pm 145 0 2 36 61 75.8 57.8 29.85 9.37 0.00 0.00 0.00 0.000
1:24pm 145 1 2 36 61 75.8 57.8 29.85 9.37 0.00 0.00 0.00 0.000
1:25pm 145 1 2 36 61 75.8 57.9 29.85 9.37 0.00 0.00 0.00 0.000
1:26pm 145 0 2 36 61 75.8 58.0 29.85 9.37 0.00 0.00 0.00 0.000
1:27pm 144 0 2 36 61 75.8 58.0 29.85 9.37 0.00 0.00 0.00 0.000
1:28pm 144 0 2 36 61 75.8 58.0 29.85 9.37 0.00 0.00 0.00 0.000
1:29pm 191 4 4 36 61 75.8 58.0 29.85 9.37 0.00 0.00 0.00 0.000
1:30pm 203 2 4 36 61 75.8 58.1 29.85 9.37 0.00 0.00 0.00 0.000
1:31pm 203 2 3 36 60 75.8 58.1 29.85 9.37 0.00 0.00 0.00 0.000
1:32pm 199 4 4 36 60 75.8 58.1 29.85 9.37 0.00 0.00 0.00 0.000
1:33pm 198 1 4 36 60 75.8 58.2 29.85 9.37 0.00 0.00 0.00 0.000
1:34pm 198 0 4 35 60 75.8 58.2 29.85 9.37 0.00 0.00 0.00 0.000
1:35pm 198 2 4 35 60 75.8 58.3 29.85 9.37 0.00 0.00 0.00 0.000
1:36pm 200 5 5 35 60 75.9 58.3 29.85 9.37 0.00 0.00 0.00 0.000
1:37pm 201 3 6 35 60 75.9 58.3 29.85 9.37 0.00 0.00 0.00 0.000
1:38pm 201 2 6 35 60 75.9 58.4 29.85 9.37 0.00 0.00 0.00 0.000
1:38pm 224 1 6 35 60 75.9 58.4 29.85 9.37 0.00 0.00 0.00 0.000
1:40pm 157 3 6 35 60 75.9 58.3 29.85 9.37 0.00 0.00 0.00 0.000
1:41pm 174 3 6 35 59 75.9 58.4 29.85 9.37 0.00 0.00 0.00 0.000
1:42pm 174 3 6 35 59 75.9 58.3 29.85 9.37 0.00 0.00 0.00 0.000
1:43pm 174 1 6 35 59 75.9 58.3 29.85 9.37 0.00 0.00 0.00 0.000
1:44pm 165 2 6 35 59 75.9 58.3 29.85 9.37 0.00 0.00 0.00 0.000
1:45pm 165 0 6 35 59 75.9 58.3 29.85 9.37 0.00 0.00 0.00 0.000
1:46pm 165 3 3 35 59 75.9 58.3 29.85 9.37 0.00 0.00 0.00 0.000
1:47pm 153 3 4 35 59 75.9 58.4 29.85 9.37 0.00 0.00 0.00 0.000
1:48pm 149 3 5